Home   Weather   Islamabad   Past weeks

Flag for Pakistan Past Weather in Islamabad, Pakistan — Yesterday and Last 2 Weeks

73 °F


Feels Like: 77 °F
Forecast: 60 / 84 °F
Wind: 7 mph from Northeast

Location: Islamabad Airport

Current Time: Oct 21, 2016 at 11:25:32 PM

Latest Report: Oct 21, 2016 at 11:00 PM

Visibility: 2 mi

Pressure: 29.86 "Hg (28.01 "Hg at 554m altitude)

Humidity: 57%

Dew Point: 57 °F

Location of IslamabadLocation

Past Weather in Islamabad — Graph


Islamabad Temperature Yesterday

Maximum temperature yesterday: 90 °F (at 2:00 PM)
Minimum temperature yesterday: 66 °F (at 3:00 AM)
Average temperature yesterday: 74 °F

High & Low Weather Summary for the Past Weeks

High93 °F (Oct 8, 3:00 PM)100% (Oct 10, 8:00 AM)29.98 "Hg (Oct 10, 8:00 AM)
Low36 °F (Oct 10, 8:00 AM)24% (Oct 14, 3:00 PM)29.74 "Hg (Oct 9, 4:00 PM)
Average78 °F51%29.86 "Hg
* Reported Oct 6 10:00 PM — Oct 21 10:00 PM, Islamabad, Weather by CustomWeather, © 2016

Note: Actual official high and low records may vary slightly from our data, if they occured in-between our weather recording intervals... More about our weather records


Islamabad Weather History for the Previous 24 Hours

Scroll right to see more
Time TempWeatherWind HumidityBarometerVisibility
10:00 PM
Fri, Oct 21
73 °FHaze.7 mph57%29.86 "Hg2 mi
9:00 PM73 °FHaze.7 mph57%29.86 "Hg2 mi
8:00 PM75 °FHaze.7 mph54%29.86 "Hg2 mi
7:00 PM79 °FHaze.7 mph39%29.86 "Hg2 mi
5:00 PM84 °FHaze.7 mph33%29.83 "Hg3 mi
4:30 PM88 °FHaze.5 mph29%29.86 "Hg3 mi
4:00 PM88 °FHaze.5 mph29%29.86 "Hg3 mi
3:00 PM90 °FHaze.5 mph31%29.86 "Hg3 mi
2:00 PM88 °FHaze.5 mph29%29.86 "Hg2 mi
1:30 PM88 °FHaze.5 mph35%29.86 "Hg2 mi
1:00 PM88 °FHaze.5 mph35%29.86 "Hg2 mi
12:30 PM86 °FHaze.5 mph35%29.89 "Hg2 mi
12:00 PM86 °FHaze.5 mph35%29.89 "Hg2 mi
11:00 AM82 °FHaze.5 mph35%29.92 "Hg2 mi
10:30 AM77 °FHaze.5 mph47%29.92 "Hg2 mi
10:00 AM77 °FHaze.5 mph47%29.92 "Hg2 mi
9:30 AM73 °FHaze.5 mph53%29.92 "Hg2 mi
9:00 AM73 °FHaze.5 mph53%29.92 "Hg2 mi
8:30 AM70 °FHaze.5 mph69%29.89 "Hg2 mi
8:00 AM70 °FHaze.5 mph69%29.89 "Hg2 mi
7:00 AM68 °FHaze.5 mph73%29.86 "Hg2 mi
6:30 AM68 °FHaze.9 mph73%29.86 "Hg2 mi
6:00 AM68 °FPassing clouds.9 mph73%29.83 "Hg2 mi
5:00 AM68 °FPassing clouds.14 mph73%29.83 "Hg2 mi
4:30 AM70 °FPassing clouds.14 mph64%29.83 "Hg2 mi
4:00 AM70 °FPassing clouds.14 mph64%29.83 "Hg2 mi
3:30 AM70 °FPassing clouds.14 mph64%29.83 "Hg2 mi
3:00 AM70 °FPassing clouds.14 mph64%29.83 "Hg2 mi
2:30 AM70 °FPassing clouds.12 mph64%29.83 "Hg2 mi
1:00 AM70 °FPassing clouds.12 mph64%29.83 "Hg2 mi
12:00 AM70 °FPassing clouds.12 mph64%29.83 "Hg2 mi
11:30 PM
Thu, Oct 20
70 °FPassing clouds.12 mph64%29.80 "Hg2 mi
11:00 PM70 °FPassing clouds.12 mph64%29.80 "Hg2 mi
Weather by CustomWeather, © 2016

See weather overviewHow to use our weather pages